SBD1556 KSAT-KDAL

Flight info

Callsign SBD1556
Flight time 0h 52m
Altitude 37000
Route YODUH1 YODUH DITSY BACHR4
Aircraft B738/M-SDE2E3FGHIRWXY/LB1

Departure

Time 2026-04-27 19:13
Airport San Antonio International Airport (KSAT)

Arrival

Time 2026-04-27 20:05
Airport Dallas Love Field (KDAL)
Time Latitude Longitude Altitude Speed Heading
2026-04-27 18:55 29.52844 -98.47154 789 ft 0 kts 311°
2026-04-27 19:05 29.52838 -98.47147 789 ft 2 kts 311°
2026-04-27 19:06 29.52828 -98.47134 789 ft 2 kts 312°
2026-04-27 19:06 29.52816 -98.47124 789 ft 2 kts 340°
2026-04-27 19:06 29.52801 -98.47121 789 ft 2 kts
2026-04-27 19:06 29.52786 -98.47124 790 ft 2 kts 24°
2026-04-27 19:07 29.52776 -98.47130 790 ft 0 kts 40°
2026-04-27 19:07 29.52771 -98.47136 790 ft 0 kts 43°
2026-04-27 19:07 29.52771 -98.47135 790 ft 0 kts 43°
2026-04-27 19:08 29.52774 -98.47132 790 ft 3 kts 43°
2026-04-27 19:08 29.52815 -98.47090 789 ft 10 kts 42°
2026-04-27 19:09 29.52882 -98.47053 788 ft 11 kts
2026-04-27 19:09 29.52957 -98.47052 788 ft 11 kts 322°
2026-04-27 19:09 29.53009 -98.47115 789 ft 10 kts 312°
2026-04-27 19:09 29.53073 -98.47197 790 ft 17 kts 311°
2026-04-27 19:10 29.53174 -98.47329 793 ft 25 kts 311°
2026-04-27 19:10 29.53307 -98.47501 794 ft 30 kts 313°
2026-04-27 19:10 29.53446 -98.47678 796 ft 28 kts 312°
2026-04-27 19:10 29.53532 -98.47789 799 ft 28 kts 311°
2026-04-27 19:11 29.53700 -98.48005 802 ft 26 kts 311°
2026-04-27 19:11 29.53818 -98.48158 806 ft 25 kts 312°
2026-04-27 19:11 29.53933 -98.48307 807 ft 24 kts 311°
2026-04-27 19:11 29.54046 -98.48453 807 ft 24 kts 311°
2026-04-27 19:12 29.54144 -98.48513 807 ft 16 kts 30°
2026-04-27 19:12 29.54152 -98.48398 804 ft 18 kts 130°
2026-04-27 19:12 29.54064 -98.48283 804 ft 23 kts 131°
2026-04-27 19:12 29.53761 -98.47896 799 ft 117 kts 131°
2026-04-27 19:13 29.53082 -98.47002 1434 ft 161 kts 131°
2026-04-27 19:13 29.52437 -98.45960 2621 ft 171 kts 115°
2026-04-27 19:13 29.52433 -98.44609 3556 ft 189 kts 69°
2026-04-27 19:13 29.53305 -98.43454 4459 ft 206 kts 33°
2026-04-27 19:14 29.54691 -98.42928 5359 ft 221 kts
2026-04-27 19:14 29.56257 -98.42866 6257 ft 237 kts 359°
2026-04-27 19:14 29.57938 -98.42855 7156 ft 254 kts 359°
2026-04-27 19:14 29.59773 -98.42818 8063 ft 273 kts 360°
2026-04-27 19:15 29.61692 -98.42760 9177 ft 283 kts 360°
2026-04-27 19:15 29.63722 -98.42694 10086 ft 302 kts
2026-04-27 19:15 29.65863 -98.42628 10933 ft 321 kts 360°
2026-04-27 19:15 29.68157 -98.42561 11778 ft 340 kts 359°
2026-04-27 19:16 29.70582 -98.42491 12569 ft 358 kts 360°
2026-04-27 19:16 29.72264 -98.42442 13089 ft 370 kts 359°
2026-04-27 19:16 29.75805 -98.42335 14142 ft 392 kts 359°
2026-04-27 19:16 29.78548 -98.42250 15230 ft 397 kts 358°
2026-04-27 19:17 29.81290 -98.42165 16372 ft 399 kts 357°
2026-04-27 19:17 29.84081 -98.42081 17523 ft 403 kts 356°
2026-04-27 19:17 29.86892 -98.41975 18565 ft 409 kts 358°
2026-04-27 19:17 29.89740 -98.41722 19617 ft 415 kts
2026-04-27 19:18 29.92617 -98.41358 20670 ft 419 kts
2026-04-27 19:18 29.95544 -98.40949 21599 ft 425 kts
2026-04-27 19:18 29.98464 -98.40533 22538 ft 429 kts
2026-04-27 19:18 30.01442 -98.40115 23426 ft 434 kts
2026-04-27 19:19 30.04487 -98.39696 24278 ft 439 kts
2026-04-27 19:19 30.07523 -98.39264 25030 ft 446 kts
2026-04-27 19:19 30.10587 -98.38680 25872 ft 451 kts
2026-04-27 19:19 30.13709 -98.37959 26660 ft 456 kts
2026-04-27 19:20 30.16821 -98.37188 27315 ft 463 kts
2026-04-27 19:20 30.19968 -98.36391 28019 ft 467 kts
2026-04-27 19:20 30.23160 -98.35579 28721 ft 471 kts
2026-04-27 19:20 30.26369 -98.34769 29346 ft 476 kts
2026-04-27 19:21 30.29610 -98.33958 30026 ft 480 kts
2026-04-27 19:21 30.32886 -98.33142 30727 ft 483 kts
2026-04-27 19:21 30.36163 -98.32330 31608 ft 480 kts
2026-04-27 19:21 30.39426 -98.31522 32554 ft 476 kts
2026-04-27 19:22 30.42616 -98.30731 33528 ft 470 kts
2026-04-27 19:22 30.45811 -98.29942 34406 ft 466 kts
2026-04-27 19:22 30.48983 -98.29165 35033 ft 467 kts
2026-04-27 19:22 30.52130 -98.28400 35672 ft 467 kts
2026-04-27 19:23 30.55345 -98.27621 36267 ft 468 kts
2026-04-27 19:23 30.58560 -98.26842 36792 ft 470 kts
2026-04-27 19:23 30.61753 -98.26072 36904 ft 478 kts
2026-04-27 19:24 30.68368 -98.24466 36917 ft 477 kts
2026-04-27 19:24 30.74908 -98.22862 36919 ft 478 kts
2026-04-27 19:25 30.81398 -98.21270 36917 ft 477 kts
2026-04-27 19:25 30.87920 -98.19671 36916 ft 477 kts
2026-04-27 19:26 30.94456 -98.18066 36910 ft 478 kts
2026-04-27 19:26 31.00934 -98.16473 36903 ft 477 kts
2026-04-27 19:27 31.07447 -98.14869 36904 ft 478 kts
2026-04-27 19:27 31.13970 -98.13263 36901 ft 479 kts
2026-04-27 19:28 31.20454 -98.11661 36890 ft 473 kts
2026-04-27 19:28 31.23631 -98.10867 36609 ft 462 kts
2026-04-27 19:28 31.26757 -98.10076 36139 ft 451 kts
2026-04-27 19:28 31.29831 -98.09310 35531 ft 452 kts
2026-04-27 19:29 31.32876 -98.08559 34826 ft 452 kts
2026-04-27 19:29 31.35983 -98.07796 34061 ft 451 kts
2026-04-27 19:29 31.39021 -98.07039 33287 ft 452 kts
2026-04-27 19:29 31.42091 -98.06108 32480 ft 458 kts
2026-04-27 19:30 31.45139 -98.04982 31648 ft 462 kts
2026-04-27 19:30 31.48169 -98.03741 30789 ft 466 kts 11°
2026-04-27 19:30 31.51222 -98.02428 29895 ft 469 kts 12°
2026-04-27 19:30 31.54262 -98.01019 28959 ft 475 kts 16°
2026-04-27 19:31 31.57251 -97.99319 27981 ft 482 kts 20°
2026-04-27 19:31 31.60207 -97.97396 26936 ft 491 kts 24°
2026-04-27 19:31 31.63106 -97.95378 25949 ft 482 kts 25°
2026-04-27 19:31 31.65906 -97.93360 25436 ft 462 kts 26°
2026-04-27 19:32 31.68595 -97.91399 24917 ft 445 kts 26°
2026-04-27 19:32 31.71159 -97.89532 24339 ft 431 kts 26°
2026-04-27 19:32 31.73736 -97.87675 23718 ft 433 kts 26°
2026-04-27 19:32 31.76305 -97.85844 23092 ft 433 kts 26°
2026-04-27 19:33 31.78866 -97.84031 22470 ft 428 kts 25°
2026-04-27 19:33 31.80555 -97.82838 22058 ft 425 kts 25°
2026-04-27 19:33 31.83897 -97.80484 21246 ft 420 kts 25°
2026-04-27 19:33 31.86397 -97.78725 20636 ft 416 kts 25°
2026-04-27 19:34 31.88869 -97.76989 20023 ft 412 kts 26°
2026-04-27 19:34 31.91332 -97.75260 19432 ft 409 kts 26°
2026-04-27 19:34 31.93756 -97.73560 18837 ft 406 kts 25°
2026-04-27 19:34 31.96166 -97.71867 18233 ft 402 kts 26°
2026-04-27 19:35 31.98546 -97.70196 17645 ft 401 kts 25°
2026-04-27 19:35 32.00970 -97.68494 17041 ft 404 kts 26°
2026-04-27 19:35 32.03355 -97.66811 16443 ft 401 kts 27°
2026-04-27 19:35 32.05732 -97.65088 15836 ft 398 kts 27°
2026-04-27 19:36 32.08063 -97.63367 15237 ft 396 kts 28°
2026-04-27 19:36 32.10383 -97.61643 14646 ft 393 kts 28°
2026-04-27 19:36 32.12707 -97.59909 14057 ft 391 kts 28°
2026-04-27 19:36 32.14984 -97.58214 13480 ft 388 kts 28°
2026-04-27 19:37 32.17267 -97.56518 12904 ft 386 kts 29°
2026-04-27 19:37 32.19534 -97.54839 12317 ft 384 kts 28°
2026-04-27 19:37 32.21759 -97.53191 11742 ft 381 kts 28°
2026-04-27 19:37 32.23983 -97.51546 11249 ft 376 kts 28°
2026-04-27 19:38 32.26158 -97.49896 11014 ft 362 kts 32°
2026-04-27 19:38 32.28035 -97.48040 10861 ft 344 kts 46°
2026-04-27 19:38 32.29374 -97.45725 10841 ft 339 kts 62°
2026-04-27 19:38 32.30398 -97.43231 10832 ft 337 kts 66°
2026-04-27 19:39 32.31354 -97.40719 10653 ft 339 kts 66°
2026-04-27 19:39 32.32328 -97.38189 10410 ft 335 kts 65°
2026-04-27 19:39 32.33304 -97.35735 10173 ft 332 kts 64°
2026-04-27 19:39 32.34308 -97.33270 9931 ft 330 kts 65°
2026-04-27 19:40 32.35318 -97.30823 9693 ft 326 kts 65°
2026-04-27 19:40 32.36299 -97.28450 9451 ft 317 kts 64°
2026-04-27 19:40 32.37254 -97.26141 9196 ft 310 kts 64°
2026-04-27 19:40 32.38198 -97.23862 8878 ft 306 kts 64°
2026-04-27 19:41 32.39121 -97.21615 8842 ft 306 kts 65°
2026-04-27 19:41 32.40051 -97.19331 8840 ft 309 kts 65°
2026-04-27 19:41 32.40981 -97.17033 8842 ft 310 kts 65°
2026-04-27 19:41 32.41905 -97.14751 8847 ft 309 kts 65°
2026-04-27 19:42 32.42837 -97.12460 8845 ft 307 kts 65°
2026-04-27 19:42 32.43770 -97.10164 8846 ft 309 kts 65°
2026-04-27 19:42 32.44690 -97.07903 8844 ft 309 kts 65°
2026-04-27 19:42 32.45626 -97.05595 8848 ft 307 kts 65°
2026-04-27 19:43 32.46531 -97.03329 8842 ft 306 kts 65°
2026-04-27 19:43 32.47430 -97.01047 8712 ft 302 kts 65°
2026-04-27 19:43 32.48307 -96.98819 8402 ft 298 kts 65°
2026-04-27 19:43 32.49182 -96.96599 8033 ft 297 kts 65°
2026-04-27 19:44 32.50059 -96.94375 7671 ft 295 kts 65°
2026-04-27 19:44 32.50919 -96.92199 7303 ft 293 kts 65°
2026-04-27 19:44 32.51781 -96.90013 6931 ft 292 kts 65°
2026-04-27 19:44 32.52642 -96.87860 6569 ft 290 kts 64°
2026-04-27 19:45 32.53530 -96.85709 6204 ft 288 kts 63°
2026-04-27 19:45 32.54416 -96.83589 5842 ft 286 kts 63°
2026-04-27 19:45 32.55288 -96.81499 5485 ft 284 kts 63°
2026-04-27 19:45 32.56160 -96.79409 5135 ft 281 kts 63°
2026-04-27 19:46 32.57074 -96.77398 4771 ft 271 kts 57°
2026-04-27 19:46 32.58117 -96.75642 4539 ft 256 kts 52°
2026-04-27 19:46 32.59211 -96.74008 4298 ft 245 kts 50°
2026-04-27 19:46 32.60251 -96.72476 4062 ft 235 kts 51°
2026-04-27 19:47 32.61248 -96.70973 3824 ft 228 kts 51°
2026-04-27 19:47 32.62196 -96.69518 3597 ft 219 kts 52°
2026-04-27 19:47 32.63105 -96.68113 3367 ft 210 kts 52°
2026-04-27 19:47 32.63985 -96.66755 3128 ft 203 kts 51°
2026-04-27 19:48 32.64823 -96.65462 2898 ft 196 kts 52°
2026-04-27 19:48 32.65652 -96.64187 2657 ft 191 kts 52°
2026-04-27 19:48 32.66450 -96.62960 2422 ft 187 kts 52°
2026-04-27 19:48 32.67217 -96.61777 2312 ft 175 kts 52°
2026-04-27 19:49 32.68006 -96.60702 2328 ft 170 kts 38°
2026-04-27 19:49 32.69056 -96.60175 2330 ft 167 kts
2026-04-27 19:49 32.70217 -96.60162 2334 ft 166 kts 356°
2026-04-27 19:49 32.71373 -96.60104 2327 ft 166 kts 360°
2026-04-27 19:50 32.72548 -96.60008 2330 ft 166 kts 359°
2026-04-27 19:50 32.73685 -96.60091 2321 ft 162 kts 336°
2026-04-27 19:50 32.74578 -96.60813 2330 ft 155 kts 309°
2026-04-27 19:50 32.75337 -96.61724 2328 ft 155 kts 311°
2026-04-27 19:51 32.76151 -96.62583 2331 ft 157 kts 313°
2026-04-27 19:51 32.76976 -96.63451 2330 ft 156 kts 313°
2026-04-27 19:51 32.77782 -96.64317 2330 ft 155 kts 312°
2026-04-27 19:51 32.78582 -96.65182 2331 ft 156 kts 312°
2026-04-27 19:52 32.79380 -96.66040 2330 ft 155 kts 313°
2026-04-27 19:52 32.80192 -96.66910 2327 ft 156 kts 312°
2026-04-27 19:52 32.81002 -96.67780 2326 ft 155 kts 313°
2026-04-27 19:52 32.81775 -96.68677 2326 ft 154 kts 307°
2026-04-27 19:53 32.83175 -96.70615 2327 ft 153 kts 307°
2026-04-27 19:53 32.83899 -96.71563 2327 ft 154 kts 308°
2026-04-27 19:53 32.84616 -96.72500 2326 ft 153 kts 307°
2026-04-27 19:54 32.85328 -96.73449 2324 ft 153 kts 306°
2026-04-27 19:54 32.86045 -96.74389 2328 ft 154 kts 307°
2026-04-27 19:54 32.86761 -96.75330 2325 ft 153 kts 307°
2026-04-27 19:54 32.87487 -96.76287 2325 ft 153 kts 307°
2026-04-27 19:55 32.88192 -96.77223 2327 ft 153 kts 307°
2026-04-27 19:55 32.88914 -96.78177 2328 ft 153 kts 307°
2026-04-27 19:55 32.89628 -96.79125 2325 ft 152 kts 307°
2026-04-27 19:55 32.90349 -96.80072 2329 ft 154 kts 306°
2026-04-27 19:56 32.91064 -96.81009 2332 ft 154 kts 307°
2026-04-27 19:56 32.91794 -96.81967 2336 ft 155 kts 308°
2026-04-27 19:56 32.92508 -96.82910 2334 ft 154 kts 307°
2026-04-27 19:56 32.93235 -96.83875 2338 ft 155 kts 307°
2026-04-27 19:57 32.93953 -96.84815 2337 ft 154 kts 308°
2026-04-27 19:57 32.94675 -96.85764 2341 ft 148 kts 306°
2026-04-27 19:57 32.95353 -96.86656 2337 ft 143 kts 307°
2026-04-27 19:57 32.96014 -96.87534 2337 ft 142 kts 307°
2026-04-27 19:58 32.96672 -96.88414 2335 ft 141 kts 306°
2026-04-27 19:58 32.97336 -96.89281 2339 ft 143 kts 308°
2026-04-27 19:58 32.97986 -96.90138 2333 ft 135 kts 307°
2026-04-27 19:58 32.98604 -96.90964 2332 ft 131 kts 307°
2026-04-27 19:59 32.99215 -96.91775 2338 ft 132 kts 306°
2026-04-27 19:59 32.99830 -96.92584 2331 ft 133 kts 307°
2026-04-27 19:59 33.00335 -96.93486 2320 ft 126 kts 282°
2026-04-27 19:59 33.00322 -96.94499 2341 ft 123 kts 256°
2026-04-27 20:00 33.00048 -96.95438 2238 ft 118 kts 238°
2026-04-27 20:00 32.99401 -96.96076 2204 ft 124 kts 208°
2026-04-27 20:00 32.98609 -96.96407 2075 ft 121 kts 191°
2026-04-27 20:00 32.97755 -96.96230 1730 ft 131 kts 158°
2026-04-27 20:01 32.97017 -96.95583 1428 ft 135 kts 137°
2026-04-27 20:01 32.96506 -96.94642 1296 ft 134 kts 122°
2026-04-27 20:01 32.96015 -96.93667 1323 ft 139 kts 128°
2026-04-27 20:01 32.95358 -96.92879 1308 ft 130 kts 160°
2026-04-27 20:02 32.94479 -96.92637 1342 ft 131 kts 172°
2026-04-27 20:02 32.93602 -96.92367 1323 ft 130 kts 168°
2026-04-27 20:02 32.92718 -96.92100 1319 ft 129 kts 172°
2026-04-27 20:02 32.91841 -96.91878 1323 ft 130 kts 172°
2026-04-27 20:03 32.91001 -96.91495 1315 ft 134 kts 147°
2026-04-27 20:03 32.90348 -96.90688 1335 ft 135 kts 136°
2026-04-27 20:03 32.89663 -96.89926 1424 ft 129 kts 151°
2026-04-27 20:03 32.88947 -96.89291 1391 ft 128 kts 148°
2026-04-27 20:04 32.88274 -96.88590 1352 ft 130 kts 139°
2026-04-27 20:04 32.87629 -96.87811 1264 ft 133 kts 140°
2026-04-27 20:04 32.86923 -96.87067 1002 ft 137 kts 141°
2026-04-27 20:04 32.86236 -96.86256 764 ft 139 kts 139°
2026-04-27 20:05 32.85548 -96.85465 539 ft 136 kts 139°
2026-04-27 20:05 32.84906 -96.84717 496 ft 119 kts 139°
2026-04-27 20:05 32.84462 -96.84221 492 ft 30 kts 135°
2026-04-27 20:05 32.84313 -96.84042 492 ft 33 kts 135°
2026-04-27 20:06 32.84196 -96.83952 491 ft 19 kts 207°
2026-04-27 20:06 32.84100 -96.84073 488 ft 20 kts 254°
2026-04-27 20:06 32.84182 -96.84199 487 ft 20 kts 315°
2026-04-27 20:06 32.84285 -96.84319 487 ft 21 kts 315°
2026-04-27 20:07 32.84390 -96.84443 487 ft 21 kts 320°
2026-04-27 20:07 32.84511 -96.84552 487 ft 22 kts 336°
2026-04-27 20:07 32.84608 -96.84639 488 ft 14 kts 302°
2026-04-27 20:07 32.84641 -96.84719 488 ft 8 kts 267°
2026-04-27 20:08 32.84635 -96.84746 488 ft 1 kts 249°
2026-04-27 20:08 32.84633 -96.84752 488 ft 1 kts 246°
2026-04-27 20:08 32.84631 -96.84756 488 ft 0 kts 248°